Regional Weather Roundup
Issued by NWS Sterling, VA

Home | Current Version | Previous Version | Graphics & Text | Print | Product List | Glossary On
Versions: 1 2 3 4 5 6 7 8 9 10 11 12 13 14 15 16 17 18 19 20 21 22 23 24 25 26 27
000
ASUS41 KLWX 020910
RWRLWX

REGIONAL WEATHER ROUNDUP
NATIONAL WEATHER SERVICE BALTIMORE MD/WASHINGTON DC
500 AM EDT MON MAY 02 2016

Note: "FAIR" indicates few or no clouds below 12,000 feet
with no significant weather and/or obstructions to visibility.
 TC=TEMPERATURE CELSIUS

 * =Non NWS site. Station does not report precipitation (e.g. rain,
    snow, etc.), thunder, or fog.

DCZ001-MDZ009-015-VAZ040>042-051-053>054-021000-
WASHINGTON METRO

CITY           SKY/WX    TMP DP  RH WIND       PRES   REMARKS
WASHINGTON NAT CLOUDY    55  54  96 E3        29.95S FOG
DULLES         FOG       54  54 100 NE3       29.95R VSB 1
ANDREWS AFB    FOG       54  53  98 E3        29.93F VSB 1/4
FT BELVOIR     CLOUDY    55  54  94 E1        29.95F FOG
QUANTICO       CLOUDY    58  56  93 E5        29.95F
COLLEGE PARK*  CLOUDY    54  52  94 CALM      29.95S
LEESBURG*      FOG       55  55 100 NE3       29.96R VSB 1/4
MANASSAS*      CLOUDY    55  55 100 CALM      29.96R VSB 1/2
GAITHERSBURG*  CLOUDY    54  50  87 CALM      29.99S VSB 1/2

$$

MDZ006>007-011-014-021000-
BALTIMORE METRO

CITY           SKY/WX    TMP DP  RH WIND       PRES   REMARKS
BWI AIRPORT    CLOUDY    54  53  97 E9        29.96R FOG
MD SCIENCE CTR   N/A     54  53  97 MISG      29.96S
MARTIN STATE   CLOUDY    54  54 100 E7        29.97S
ANNAPOLIS      CLOUDY    55  53  93 E6        29.95R
FORT MEADE*    CLOUDY    54  52  94 E3        29.98R

$$

MDZ012-015-019>023-021000-
MARYLAND EASTERN SHORE

CITY           SKY/WX    TMP DP  RH WIND       PRES   REMARKS
OCEAN CITY     LGT RAIN  51  51 100 E10       29.95F
SALISBURY      CLOUDY    53  53 100 E8        29.94F
CAMBRIDGE*     CLOUDY    54  52  94 CALM      29.95R
EASTON*        CLOUDY   N/A N/A N/A E6        29.99S HAZE

$$

MDZ017>025-021000-
SOUTHERN MARYLAND

CITY           SKY/WX    TMP DP  RH WIND       PRES   REMARKS
PATUXENT RIVER CLOUDY    56  54  93 E7        29.94F
ST INIGOES     CLOUDY    57  56  96 NE7         N/A  FOG
LEONARDTOWN*   CLOUDY    55  54  94 NE3       29.95F

$$

MDZ003>005-021000-
NORTH CENTRAL MARYLAND

CITY           SKY/WX    TMP DP  RH WIND       PRES   REMARKS
FREDERICK*     CLOUDY    52  52 100 CALM      29.98F FOG
HAGERSTOWN APT CLOUDY    55  53  93 CALM      29.93F FOG
WESTMINSTER*   FOG       52  48  87 CALM      29.95F VSB 1/2

$$

MDZ501>502-021000-
WESTERN MARYLAND

CITY           SKY/WX    TMP DP  RH WIND       PRES   REMARKS
OAKLAND*       CLOUDY    54  54 100 SW9G20    29.96R
CUMBERLAND*    CLOUDY    55  55 100 CALM      29.95F

$$

VAZ025>031-021000-
SHENANDOAH VALLEY

CITY           SKY/WX    TMP DP  RH WIND       PRES   REMARKS
WINCHESTER*    CLOUDY    55  55 100 CALM      29.94R FOG
FRONT ROYAL*   CLOUDY    55  55 100 CALM      29.92S
LURAY*         FOG       57  57 100 CALM      29.94R VSB 1/4
NEW MARKET*    CLOUDY    57  57 100 SE5       29.93S VSB 1/2
STAUNTON*      FOG       55  55 100 CALM      29.97S VSB 3/4
WAYNESBORO*    CLOUDY    55  54  96 MISG      29.96S

$$

WVZ021-048>050-054>055-021000-
EASTERN WEST VIRGINIA PANHANDLE

CITY           SKY/WX    TMP DP  RH WIND       PRES   REMARKS
MARTINSBURG    CLOUDY    54  53  97 E5        29.92F FOG
PETERSBURG*    CLOUDY    60  59  96 CALM      29.93S

$$

VAZ036>039-050-021000-
CENTRAL FOOTHILLS

CITY           SKY/WX    TMP DP  RH WIND       PRES   REMARKS
CHARLOTTESVILL FOG       60  58  92 SE3       29.95R VSB 1/2
CULPEPER*      FOG       57  57 100 CALM      29.96S VSB 1/2
ORANGE*        CLOUDY    59  59 100 CALM      29.96S FOG
GORDONSVILLE*  FOG       59  59 100 CALM      29.94F VSB 1/2
WARRENTON*     FOG       57  53  86 CALM      29.95R VSB 1/2

$$

VAZ055>057-021000-
NORTH AND CENTRAL PIEDMONT

CITY           SKY/WX    TMP DP  RH WIND       PRES   REMARKS
FREDERICKSBRG* CLOUDY    58  58 100 CALM      29.94S
STAFFORD*      CLOUDY    56  55  97 CALM      29.99R FOG

$$

NCZ024-NYZ072-PAZ021-071-VAZ022-071-021000-
OTHER REGIONAL OBSERVATIONS

CITY           SKY/WX    TMP DP  RH WIND       PRES   REMARKS
NEW YORK CITY  CLOUDY    46  43  89 VRB3      30.03F FOG
PHILADELPHIA   LGT RAIN  48  45  89 NE8       29.98F
PITTSBURGH     LGT RAIN  54  52  93 W3        29.88R
ROANOKE        FOG       61  60  97 CALM      29.99F VSB 1/2
RICHMOND       FAIR      63  62  97 S8        29.93F
RALEIGH        CLOUDY    66  64  94 SW5       29.98F

$$

ANZ530>537-021000-
MARINE OBSERVATIONS

STATION/POSITION TIME  TEMP    WIND        PRES
                       AIR SEA DIR/SP/G
                 (UTC) (F)     (DEG/KT/KT) (MB)
THOMAS PT LIGHT  0900   54 57   90/  9/ 10 1015.4R
BALT KEY BRIDGE  0800   54      80/  9/ 10 1014.1F
COVE POINT       0800   55     150/  6/ 10 1014.2F
LEWISETTA        0800   58 60  120/  9/ 11 1014.2F
SOLOMONS ISLAND  0800   56 59  120/  9/ 11   N/A
PINEY POINT      0800          130/  8/  9   N/A

$$





USA.gov is the U.S. government's official web portal to all federal, state and local government web resources and services.